|   |  | Asteroid 2008 CS1
					
					
					
					
						
					
					
						
							(Preview) 
						
							
								Orbital elements:
2008 CS1                                            PHA, Earth MOID = 0.0102 AU
Epoch 2012 Mar. 14.0 TT = JDT 2456000.5                 MPC
M 318.42237              (2000.0)            P               Q
n   0.72205835     Peri.   94.96325     -0.55963361     +0.74786764
a   1.2305177      Node   134.15851     -0.80647513     -0.59065679
e   0.3725238      Incl.   29.84977     +0.19080902     -0.30301576
P   1.36           H   2...                                   | Blobrana | 0 |  |  | 
		
			
			
				
				
					|   |  | Asteroid 2011 YU74
					
					
					
					
						
					
					
						
							(Preview) 
						
							
								Orbital elements:
2011 YU74                                                Earth MOID = 0.0211 AU
Epoch 2012 Mar. 14.0 TT = JDT 2456000.5                 MPC
M 351.08353              (2000.0)            P               Q
n   0.68003699     Peri.  275.63483     -0.98042007     +0.19396679
a   1.2807008      Node   275.55287     -0.16445467     -0.90138476
e   0.2598669      Incl.    1.95539     -0.10831042     -0.38714649
P   1.45           H   23.0...                                   | Blobrana | 1 |  |  | 
		
			
			
				
				
					|   |  | Asteroid 1992 JD
					
					
					
					
						
					
					
						
							(Preview) 
						
							
								The 26 - 59 metre wide asteroid 1992 JD will make a close pass (44.1 lunar distances, 0.1134 AU), travelling at 7.73 km/second, to the Earth-Moon system on the 11th November, 2011 @ 04:05 UT ±13:44.   See more  The Lunar Distanc...               | Blobrana | 1 |  |  | 
		
			
			
				
				
					|   |  | Asteroid 2011 YQ10
					
					
					
					
						
					
					
						
							(Preview) 
						
							
								Orbital elements:
2011 YQ10                                                Earth MOID = 0.0749 AU
Epoch 2012 Mar. 14.0 TT = JDT 2456000.5                 MPC
M  58.59484              (2000.0)            P               Q
n   0.28608260     Peri.  238.53097     +0.99753587     -0.06100349
a   2.2810865      Node   124.94449     +0.06956031     +0.92432779
e   0.5317363      Incl.    2.42283     -0.00914106     +0.37669180
P   3.45           H   18.7           G... | Blobrana | 1 |  |  | 
		
			
			
				
				
					|   |  | Asteroid 2008 BX2
					
					
					
					
						
					
					
						
							(Preview) 
						
							
								The 50 - 110 metre wide asteroid 2008 BX2 will make a close pass (60.7 lunar distances, 0.0739 AU), travelling at 7.66 km/second, to the Earth-Moon system on the 25th February, 2012 @ 21:44 UT ±1 day 03:29.   See more  The Lunar...                | Blobrana | 1 |  |  | 
		
			
			
				
				
					|   |  | Asteroid 2002 TZ66
					
					
					
					
						
					
					
						
							(Preview) 
						
							
								The 18 - 39 metre wide asteroid 2002 TZ66 will make a close pass (57.3 lunar distances, 0.1471 AU), travelling at 4.30 km/second, to the Earth-Moon system on the 30th November, 2011 @ 08:10 UT ±00:47.   See more  The Lunar Dis...               | Blobrana | 1 |  |  | 
		
			
			
				
				
					|   |   | Asteroid 2011 CP4
					
					
					
					
						
					
					
						
							(Preview) 
						
							
								Orbital elements: 2011 CP4                                            PHA, Earth MOID = 0.0183 AU Epoch 2011 Feb. 8.0 TT = JDT 2455600.5                  MPC M 242.23445              (2000.0)            P               Q n   1.13981847     Peri.  158.91097     +0.61228153     +0.78658417 a   0.9076371      Node   148.68245     -0.74564028     +0.60811155 e   0.8572510      Incl.    8.85133     -0.26292947     +0.10717130 P   0.86           H   21.3           G   0.15...                 | Blobrana | 3 |  |  | 
		
			
			
				
				
					|   |  | Asteroid 1993 DA
					
					
					
					
						
					
					
						
							(Preview) 
						
							
								The 14 - 31 metre wide asteroid 1993 DA will make a close pass (76.1 lunar distances, 0.1956 AU), travelling at 7.25 km/second, to the Earth-Moon system on the 8th October, 2011 @ 22:40 UT ±2 days 03:31.   See more  The Lunar Distance (LD), the distance between Earth and the Moon, equals 384,401 km, (or 0.0...  | Blobrana | 1 |  |  | 
		
			
			
				
				
					|   |  | Asteroid polarisation-albedo relationship
					
					
					
					
						
					
					
						
							(Preview) 
						
							
								Title: A revised asteroid polarization-albedo relationship using WISE/NEOWISE data  Authors: Joseph R. Masiero, A. K. Mainzer, T. Grav, J. M. Bauer, E. L. Wright, R. S. McMillan, D. J. Tholen, A. W. Blain    We present a reanalysis of the relationship between asteroid albedo and polarisation proper... | Blobrana | 0 |  |  | 
		
			
			
				
				
					|   |  | Asteroid 2011 YU75
					
					
					
					
						
					
					
						
							(Preview) 
						
							
								Orbital elements:
2011 YU75
Epoch 2012 Mar. 14.0 TT = JDT 2456000.5                 MPC
M 357.70744              (2000.0)            P               Q
n   0.04814106     Peri.  243.28378     -0.96545643     -0.00701724
a   7.4838592      Node   295.32637     +0.13951414     -0.85819462
e   0.7662741      Incl.   16.74825     -0.22006744     -0.51327648
P  20.47           H   17.0           G   0.15           U   4 MPEC 2012 -... | Blobrana | 0 |  |  | 
		
			
			
				
				
					|   |  | Asteroid 2006 UE17
					
					
					
					
						
					
					
						
							(Preview) 
						
							
								The 110 - 250 metre wide asteroid 2006 UE17 will make a close pass (53.5 lunar distances, 0.1375 AU), travelling at 8.99 km/second, to the Earth-Moon system on the 12th April, 2012 @ 01:10 UT ±2 days 05:18.   See more  The Luna...                | Blobrana | 0 |  |  | 
		
			
			
				
				
					|   |  | Asteroid (141018) 2001 WC47
					
					
					
					
						
					
					
						
							(Preview) 
						
							
								The 520 - 1200 metre wide asteroid 2001 WC47 will make a close pass (39.4 lunar distances, 0.1013 AU), travelling at 3.80 km/second, to the Earth-Moon system on the 19th April, 2012 @ 21:30 UT ±00:01.   See more  The Lunar Distance...               | Blobrana | 0 |  |  | 
		
			
			
				
				
					|   |  | Asteroid 2011 UD21
					
					
					
					
						
					
					
						
							(Preview) 
						
							
								Orbital elements:
2011 UD21                                                Earth MOID = 0.0016 AU
Epoch 2011 Aug. 27.0 TT = JDT 2455800.5                 MPC
M  13.80680              (2000.0)            P               Q
n   0.97006009     Peri.  279.79627     +0.73247715     +0.68076428
a   1.0106566      Node    37.30074     -0.62060134     +0.67137472
e   0.0294423      Incl.    0.57686     -0.27987712     +0.29294366
P   1.02           H   28.6           G   0... | Blobrana | 1 |  |  | 
		
			
			
				
				
					|   |  | Asteroid 2010 TH
					
					
					
					
						
					
					
						
							(Preview) 
						
							
								Orbital elements:
2010 TH
Epoch 2012 Mar. 14.0 TT = JDT 2456000.5                 MPC
M  35.04735              (2000.0)            P               Q
n   0.01222627     Peri.  210.92764     +0.85801603     +0.35236043
a  18.6612217      Node   123.70543     -0.32911273     +0.93575515
e   0.3253900      Incl.   26.69302     -0.39432638     -0.01429788
P  80.61           H    9.0           G   0.15           U   3 MPEC 2012 - C39...  | Blobrana | 0 |  |  | 
		
			
			
				
				
					|   |  | Asteroid (96) Aegle
					
					
					
					
						
					
					
						
							(Preview) 
						
							
								Asteroid (96) Aegle is a very large main-belt asteroid. It has a dark-coloured surface and probably a primitive carbonaceous composition. It was discovered by Jérôme Coggia on February 17, 1868, and named after one of the three Aegles in Greek mythology. Aegle has been observed occulting three st...   | Blobrana | 3 |  |  |